TimeFJT,TemperatureF,Dew PointF,Humidity,Sea Level PressureIn,VisibilityMPH,Wind Direction,Wind SpeedMPH,Gust SpeedMPH,PrecipitationIn,Events,Conditions,WindDirDegrees,DateUTC
12:00 AM,76,75,96,29.73,12,Calm,Calm,,,,Partly Cloudy,,2013-01-26 12:00:00
12:00 AM,75.2,75.2,100,29.71,24.9,Calm,Calm,-,N/A,,Overcast,0,2013-01-26 12:00:00
1:00 AM,75.2,75.2,100,29.71,24.9,Calm,Calm,-,N/A,,Overcast,0,2013-01-26 13:00:00
2:00 AM,75.2,73.4,94,29.68,24.9,Calm,Calm,-,N/A,,Overcast,0,2013-01-26 14:00:00
3:00 AM,75,74,96,29.68,12,Calm,Calm,,,,Partly Cloudy,,2013-01-26 15:00:00
3:00 AM,75.2,73.4,94,29.65,24.9,Calm,Calm,-,N/A,,Overcast,0,2013-01-26 15:00:00
4:00 AM,75.2,73.4,94,29.65,24.9,Calm,Calm,-,N/A,Rain,Light Rain Showers,0,2013-01-26 16:00:00
5:00 AM,75.2,73.4,94,29.65,24.9,Calm,Calm,-,N/A,,Overcast,0,2013-01-26 17:00:00
6:00 AM,74,74,100,29.68,12,Calm,Calm,,,Rain,Light Rain Showers,,2013-01-26 18:00:00
6:00 AM,75.2,73.4,94,29.68,18.6,Calm,Calm,-,N/A,Rain,Light Rain Showers,0,2013-01-26 18:00:00
7:00 AM,75.2,75.2,100,29.71,31.1,Calm,Calm,-,N/A,,Overcast,0,2013-01-26 19:00:00
8:00 AM,77.0,75.2,94,29.71,31.1,Calm,Calm,-,N/A,,Mostly Cloudy,0,2013-01-26 20:00:00
9:00 AM,79,76,87,29.70,31,Calm,Calm,,,,Partly Cloudy,,2013-01-26 21:00:00
9:00 AM,78.8,75.2,89,29.68,31.1,Calm,Calm,-,N/A,,Mostly Cloudy,0,2013-01-26 21:00:00
10:00 AM,80.6,75.2,84,29.68,31.1,NE,10.4,-,N/A,Rain,Light Rain,40,2013-01-26 22:00:00
11:00 AM,84.2,75.2,74,29.68,31.1,WNW,4.6,-,N/A,,Mostly Cloudy,300,2013-01-26 23:00:00
12:00 PM,86,72,55,29.67,31,North,6.9,,,,Partly Cloudy,350,2013-01-27 00:00:00
12:00 PM,86.0,71.6,62,29.65,31.1,North,6.9,-,N/A,,Mostly Cloudy,350,2013-01-27 00:00:00
1:00 PM,87.8,73.4,62,29.65,31.1,WNW,5.8,-,N/A,,Mostly Cloudy,300,2013-01-27 01:00:00
2:00 PM,89.6,71.6,55,29.62,31.1,NNE,8.1,-,N/A,,Mostly Cloudy,20,2013-01-27 02:00:00
3:00 PM,74,72,93,29.64,2,ESE,8.1,,,Snow,Rain,110,2013-01-27 03:00:00
4:00 PM,78.8,75.2,89,29.59,31.1,NE,4.6,-,N/A,,Mostly Cloudy,40,2013-01-27 04:00:00
5:00 PM,80.6,75.2,84,29.59,31.1,Calm,Calm,-,N/A,,Mostly Cloudy,0,2013-01-27 05:00:00
6:00 PM,79,75,84,29.62,12,NE,4.6,,,,Partly Cloudy,40,2013-01-27 06:00:00
6:00 PM,78.8,75.2,89,29.62,24.9,NE,4.6,-,N/A,,Mostly Cloudy,40,2013-01-27 06:00:00
7:00 PM,77.0,75.2,94,29.62,12.4,Calm,Calm,-,N/A,,Overcast,0,2013-01-27 07:00:00
8:00 PM,75.2,73.4,94,29.65,24.9,Calm,Calm,-,N/A,,Mostly Cloudy,0,2013-01-27 08:00:00
9:00 PM,75,74,95,29.66,12,Calm,Calm,,,Rain,Light Rain Showers,,2013-01-27 09:00:00
9:00 PM,75.2,73.4,94,29.65,18.6,Calm,Calm,-,N/A,Rain,Light Rain Showers,0,2013-01-27 09:00:00
10:00 PM,75.2,73.4,94,29.65,24.9,Calm,Calm,-,N/A,,Scattered Clouds,0,2013-01-27 10:00:00
11:00 PM,75.2,73.4,94,29.65,24.9,Calm,Calm,-,N/A,,Scattered Clouds,0,2013-01-27 11:00:00